Tracking 27402 objects as of 2-Jun-2023
HD Live streaming from Space Station
objects crossing your sky now

RADUGA 1-5

Track RADUGA 1-5 now!
RADUGA 1-5 is classified as:


NORAD ID: 26477
Int'l Code: 2000-049A
Perigee: 35,752.1 km
Apogee: 35,804.5 km
Inclination: 13.3 °
Period: 1,435.3 minutes
Semi major axis: 42149 km
RCS: 10 m2 (large)
Launch date: August 28, 2000
Source: Commonwealth of Independent States (former USSR) (CIS)
Launch site: TYURATAM MISSILE AND SPACE COMPLEX (TTMTR)

Military communication.
Your satellite tracking list
Your tracking list is empty




NASA's NSSDC Master Catalog

Two Line Element Set (TLE):
1 26477U 00049A   23152.90879204 -.00000271  00000-0  00000-0 0  9992
2 26477  13.3294  16.0268 0006217  70.9659 223.3971  1.00326900 83273
Source of the keplerian elements: AFSPC